HAIYANG 1B

导读 | 星芒AI

HAIYANG 1B(HY-1B)是中国第二颗海洋水色观测卫星,于2003年发射。该卫星主要用于监测海洋水色、叶绿素浓度及悬浮物分布,支持海洋环境监测与渔业资源管理。搭载多光谱传感器,具备高分辨率和宽覆盖能力,为海洋科学研究和应用提供重要数据。

基本信息
目录编号:
31113
目录名称:
HAIYANG 1B
国际标识:
2007-010A
轨道中心:
EARTH
卫星名称:
HAIYANG 1B
卫星全名:
--
卫星状态:
在轨 (已飞行6776 天)
发射日期:
2007-04-11 UTC
国别 :
中国 (CN)
星等 :
--
轨道信息
数据来源 国际轨道数据
星历时间: 2025-10-28T19:50:46+0800
21小时前
查看轨道信息
半长轴: 7166.719km
偏心率: 0.0013743
轨道倾角: 98.328°
近地点辐角 163.330°
升交点赤经 287.649°
平近点角 196.833°
近地点: 778.734km
远地点: 798.434km
周期: 100.633分钟
每日圈数: 14.309427
详细信息
使用方式:
暂无
2D轨道图
3D轨道图
轨道高度分析图
轨道倾角分析图
轨道综合分析图
查看轨道综合分析图